Home > Weather > Cumberland > Past weeks

Flag for USA Weather for the Past 2 Weeks in Cumberland, Maryland, USA

Now
69 °F

Mostly cloudy.


Feels Like: 69 °F
Forecast: 56 / 67 °F
Wind: 9 mph from South

Location: Eastern West Virginia Regional Airport

Current Time: May 2, 2016 at 10:00:36 PM

Latest Report: May 2, 2016 at 8:53 PM


Visibility: 10 mi

Pressure: 29.81 "Hg

Humidity: 81%

Dew Point: 63 °F

Location of CumberlandLocation

Historic Weather in Cumberland — Graph

°F

Cumberland Temperature Yesterday

Maximum temperature yesterday: 61 °F (at 3:53 PM)
Minimum temperature yesterday: 51 °F (at 1:01 AM)
Average temperature yesterday: 55 °F

High & Low Weather Summary for the Past Weeks

 TemperatureHumidityPressure
High85 °F (Apr 18, 3:53 PM)100% (Apr 23, 5:04 AM)30.33 "Hg (Apr 23, 5:04 AM)
Low38 °F (Apr 25, 5:53 AM)16% (Apr 18, 6:53 PM)29.69 "Hg (Apr 26, 7:53 PM)
Average59 °F66%30.01 "Hg
* Reported Apr 17 7:53 PM — May 2 7:53 PM, Cumberland, Weather by CustomWeather, © 2016

Note: Actual official high and low records may vary slightly from our data, if they occured in-between our weather recording intervals... More about our weather records

Advertising

Cumberland Weather History for the Previous 24 Hours

Scroll right to see more
 ConditionsComfort  
Time TempWeatherWind HumidityBarometerVisibility
7:53 PM
Mon, May 2
75 °FLight rain. Overcast.3 mph69%29.79 "Hg8 mi
6:53 PM77 °FPartly sunny.5 mph60%29.79 "Hg10 mi
5:53 PM83 °FSunny.5 mph34%29.78 "Hg10 mi
4:53 PM84 °FSunny.12 mph35%29.80 "Hg10 mi
3:53 PM83 °FSunny.13 mph34%29.81 "Hg10 mi
2:53 PM83 °FSunny.12 mph34%29.82 "Hg10 mi
1:53 PM82 °FSunny.12 mph37%29.84 "Hg10 mi
12:53 PM77 °FPassing clouds.8 mph56%29.85 "Hg10 mi
11:53 AM74 °FSunny.7 mph67%29.88 "Hg10 mi
10:53 AM66 °FPassing clouds.8 mph84%29.90 "Hg10 mi
9:53 AM60 °FLow clouds.9 mph93%29.93 "Hg10 mi
8:53 AM57 °FFog.5 mph96%29.93 "Hg4 mi
7:53 AM55 °FFog.6 mph100%29.95 "Hg3 mi
6:56 AM54 °FLight rain. Fog.3 mph97%29.95 "Hg2 mi
5:53 AM54 °FFog.3 mph100%29.92 "Hg2 mi
4:53 AM54 °FFog.5 mph97%29.92 "Hg2 mi
4:02 AM54 °FLow clouds.3 mph97%29.94 "Hg7 mi
3:53 AM54 °FFog.3 mph100%29.94 "Hg6 mi
2:53 AM54 °FLow clouds.No wind100%29.95 "Hg7 mi
1:53 AM55 °FLow clouds.No wind96%29.96 "Hg9 mi
12:53 AM55 °FLight rain. Fog.3 mph96%29.97 "Hg6 mi
11:53 PM
Sun, May 1
55 °FLight rain. Fog.No wind100%29.99 "Hg5 mi
10:53 PM56 °FLight rain. Fog.6 mph93%30.01 "Hg5 mi
Weather by CustomWeather, © 2016

See weather overviewHow to use our weather pages